"TOA5","AWS1","CR1000","7964","CR1000.Std.14","CPU:AWS1_114.CR1","64363","TBL110"
"TIMESTAMP","RECORD","Wind_spd_WVc(1)","Wind_spd_WVc(2)","Air_Temp_Avg","Humidity_Avg","SW_upper_Wm2_Avg","Rain_Tot","Press_Avg","Issui_Tot","Depth_cm","SR50A_Raw","Quality","Ground_Temp_Avg(1)","Ground_Temp_Avg(2)","SW_lower_Wm2_Avg","Albedo_Avg","SWC_per(1)","SWC_per(2)","Period(1)","Period(2)"
"TS","RN","","","","","","","","","","","","","","","","","","",""
"","","WVc","WVc","Avg","Avg","Avg","Tot","Avg","Tot","Smp","Smp","Smp","Avg","Avg","Avg","Avg","Smp","Smp","Smp","Smp"
"2016-11-12 00:00:00",261565,0.155,145.4,3.834,69.34,0,0,868.9518,0,-2.672,3.186,181,7.731,8.59,0.05308982,0,51.94,60.03,33.77,35.69
"2016-11-12 00:10:00",261566,0.295,156,3.605,70.33,0,0,869.0129,0,-2.773,3.187,190,7.705,8.6,0.02275278,0,51.99,60.03,33.79,35.69
"2016-11-12 00:20:00",261567,0.329,242.9,3.893,68.61,0,0,869.0972,0,-2.014,3.175,186,7.718,8.58,0.3830052,0,51.99,59.97,33.79,35.67
"2016-11-12 00:30:00",261568,0.537,250.2,4.463,66.04,0,0,869.1077,0,-2.34,3.177,182,7.692,8.57,0.6029487,0,51.94,60.03,33.77,35.69
"2016-11-12 00:40:00",261569,0.428,183.4,4.461,66,0,0,869.1077,0,-3.072,3.187,182,7.692,8.59,0.291994,0,51.94,60.03,33.77,35.69
"2016-11-12 00:50:00",261570,0.444,276.6,4.012,69.07,0,0,869.1268,0,-3.148,3.187,192,7.629,8.59,0.03033704,0,51.94,60.03,33.77,35.69
"2016-11-12 01:00:00",261571,0.363,163.2,4.03,68.77,0,0,869.2722,0,-3.729,3.196,189,7.615,8.59,0.1061796,0,51.94,59.97,33.77,35.67
"2016-11-12 01:10:00",261572,0.544,182.5,3.914,68.89,0,0,869.3544,0,-2.947,3.186,177,7.626,8.58,0.1896065,0,51.94,59.97,33.77,35.67
"2016-11-12 01:20:00",261573,0.244,177.6,4.128,67.53,0,0,869.4344,0,-2.667,3.18,181,7.605,8.58,0.3033704,0,51.94,59.97,33.77,35.67
"2016-11-12 01:30:00",261574,0.227,182.1,4.274,66.86,0,0,869.504,0,-1.762,3.173,183,7.605,8.59,0.204775,0,51.94,59.97,33.77,35.67
"2016-11-12 01:40:00",261575,0.425,37.65,3.921,68.69,0,0,869.6115,0,-2.872,3.185,188,7.599,8.59,0.1289324,0,51.94,59.97,33.77,35.67
"2016-11-12 01:50:00",261576,0.209,116.9,4.198,67.21,0,0,869.6136,0,-3.527,3.192,184,7.582,8.56,0.2237357,0,51.94,59.91,33.77,35.66
"2016-11-12 02:00:00",261577,0.399,161.8,4.011,68.41,0,0,869.6115,0,-3.675,3.19,183,7.595,8.57,0.3337075,0,51.94,59.97,33.77,35.67
"2016-11-12 02:10:00",261578,0.366,169,4.416,66.93,0,0,869.5947,0,-1.556,3.168,198,7.535,8.57,0.4891848,0,51.94,59.91,33.77,35.66
"2016-11-12 02:20:00",261579,0.496,254.2,4.793,65.41,0,0,869.6136,0,-1.609,3.169,201,7.518,8.58,0.4436792,0,51.94,59.91,33.77,35.66
"2016-11-12 02:30:00",261580,0.476,181.3,4.458,67.41,0,0,869.6136,0,-3.525,3.189,190,7.518,8.59,0.0758426,0,51.94,59.91,33.77,35.66
"2016-11-12 02:40:00",261581,0.442,163.2,4.324,68.39,0,0,869.6136,0,-2.671,3.184,192,7.518,8.61,0.03412917,0,51.88,59.85,33.76,35.64
"2016-11-12 02:50:00",261582,0.496,223.3,4.309,68.75,0,0,869.6136,0,-3.525,3.189,193,7.514,8.64,0.174438,0,51.94,59.85,33.77,35.64
"2016-11-12 03:00:00",261583,0.397,285.3,4.693,67.45,0,0,869.6284,0,-2.767,3.18,193,7.457,8.66,0.2578649,0,51.88,59.85,33.76,35.64
"2016-11-12 03:10:00",261584,0.427,293.5,4.742,67.95,0,0,869.6516,0,-3.02,3.183,181,7.391,8.66,0.05308982,0,51.94,59.85,33.77,35.64
"2016-11-12 03:20:00",261585,0.162,345.5,4.353,70.73,0,0,869.8062,0,-2.593,3.181,186,7.409,8.65,0,0,51.88,59.85,33.76,35.64
"2016-11-12 03:30:00",261586,0.375,315.6,3.785,75.39,0,0,869.892,0,-2.417,3.182,173,7.431,8.64,0,0,51.94,59.79,33.77,35.63
"2016-11-12 03:40:00",261587,0.438,40.33,3.996,72.53,0,0,870.0515,0,-2.366,3.181,177,7.428,8.63,0,0,51.88,59.79,33.76,35.63
"2016-11-12 03:50:00",261588,0.391,196.3,3.678,75.42,0,0,870.1749,0,-2.366,3.182,181,7.427,8.62,0,0,51.88,59.79,33.76,35.63
"2016-11-12 04:00:00",261589,0.379,187.1,3.594,76.43,0,0,870.074,0,-2.612,3.185,189,7.413,8.57,0,0,51.94,59.79,33.77,35.63
"2016-11-12 04:10:00",261590,0.592,183,3.564,80.1,0,0,870.2253,0,-2.713,3.187,182,7.342,8.56,0.01895935,0,51.88,59.79,33.76,35.63
"2016-11-12 04:20:00",261591,0.699,172.3,3.507,80.9,0,0,870.256,0,-3.066,3.19,185,7.323,8.55,0.0113758,0,51.88,59.79,33.76,35.63
"2016-11-12 04:30:00",261592,0.767,180.3,3.579,81.8,0,0,870.2038,0,-3.014,3.189,176,7.327,8.54,0.003791927,0,51.88,59.79,33.76,35.63
"2016-11-12 04:40:00",261593,0.793,227.4,3.673,81.9,0,0,870.3135,0,-3.367,3.192,172,7.329,8.54,0.151676,0,51.88,59.79,33.76,35.63
"2016-11-12 04:50:00",261594,0.626,182.4,3.7,84.1,0,0,870.3056,0,-3.194,3.191,181,7.326,8.54,0.05308682,0,51.88,59.73,33.76,35.62
"2016-11-12 05:00:00",261595,0.29,239.4,3.713,84.8,0,0,870.3986,0,-3.066,3.189,194,7.265,8.55,0,0,51.88,59.73,33.76,35.62
"2016-11-12 05:10:00",261596,0.379,274.9,3.709,85.9,0,0,870.4148,0,-2.887,3.187,181,7.244,8.54,0,0,51.88,59.73,33.76,35.62
"2016-11-12 05:20:00",261597,0.242,198.5,3.706,87,0,0,870.5601,0,-2.809,3.187,177,7.222,8.54,0,0,51.88,59.73,33.76,35.62
"2016-11-12 05:30:00",261598,0.727,204.1,3.575,88.4,0,0,870.5919,0,-2.753,3.187,190,7.186,8.53,0,0,51.88,59.73,33.76,35.62
"2016-11-12 05:40:00",261599,0.612,165.7,3.494,90.4,0,0,870.6432,0,-2.75,3.187,189,7.206,8.52,0,0,51.82,59.79,33.75,35.63
"2016-11-12 05:50:00",261600,0.784,173.4,3.434,91.1,0,0,870.7598,0,-2.954,3.19,194,7.223,8.52,0,0,51.82,59.73,33.75,35.62
"2016-11-12 06:00:00",261601,0.777,176.4,3.307,91.7,0,0,870.7825,0,-2.75,3.188,185,7.222,8.52,0,0,51.82,59.73,33.75,35.62
"2016-11-12 06:10:00",261602,0.363,170.2,3.342,91.1,0,0,870.7983,0,-2.652,3.187,194,7.221,8.52,0,0,51.88,59.73,33.76,35.62
"2016-11-12 06:20:00",261603,0.595,190.7,3.364,90.1,0.01966251,0,870.8073,0,-3.005,3.19,180,7.225,8.52,0.1706245,0.08,51.88,59.73,33.76,35.62
"2016-11-12 06:30:00",261604,0.797,187.3,3.282,89.5,1.510141,0,870.8016,0,-3.015,3.191,181,7.229,8.54,0.3185118,0.285,51.88,59.73,33.76,35.62
"2016-11-12 06:40:00",261605,0.764,171.8,3.251,89.6,4.613203,0,870.887,0,-2.82,3.19,185,7.256,8.53,0.6673898,0.146,51.88,59.67,33.76,35.6
"2016-11-12 06:50:00",261606,1.145,172.3,3.145,89,9.828143,0,871.1426,0,-2.717,3.189,186,7.265,8.52,1.384079,0.141,51.88,59.67,33.76,35.6
"2016-11-12 07:00:00",261607,0.8,165.4,3.014,89.2,21.23757,0,871.3365,0,-2.67,3.189,185,7.206,8.49,3.245994,0.147,51.82,59.67,33.75,35.6
"2016-11-12 07:10:00",261608,0.95,164.1,3.151,87.9,22.3823,0,871.3445,0,-2.646,3.188,184,7.177,8.48,3.13606,0.138,51.88,59.67,33.76,35.6
"2016-11-12 07:20:00",261609,0.778,169.4,3.101,88.3,31.34174,0,871.4688,0,-2.369,3.185,193,7.17,8.48,7.110227,0.207,51.88,59.67,33.76,35.6
"2016-11-12 07:30:00",261610,0.76,169.8,3.443,87.1,36.83212,0,871.6304,0,-2.67,3.186,179,7.171,8.46,11.59629,0.319,51.82,59.67,33.75,35.6
"2016-11-12 07:40:00",261611,0.754,165.3,3.736,85.5,36.60367,0,871.6359,0,-2.569,3.183,185,7.145,8.44,12.38873,0.34,51.88,59.61,33.76,35.59
"2016-11-12 07:50:00",261612,0.622,174.4,4.07,83.6,47.51781,0,871.6979,0,-2.772,3.186,184,7.134,8.43,14.01941,0.298,51.88,59.67,33.76,35.6
"2016-11-12 08:00:00",261613,0.248,299.3,3.83,83.4,94.22977,0,871.9173,0,-2.317,3.18,189,7.142,8.44,17.75092,0.198,51.82,59.61,33.75,35.59
"2016-11-12 08:10:00",261614,0.41,266,4.05,81.8,66.88796,0,872.1223,0,-2.62,3.183,176,7.134,8.43,14.4518,0.22,51.82,59.61,33.75,35.59
"2016-11-12 08:20:00",261615,0.708,250.1,4.063,81.4,66.97453,0,872.1322,0,-2.62,3.183,180,7.138,8.43,11.60771,0.167,51.77,59.61,33.73,35.59
"2016-11-12 08:30:00",261616,0.678,265.8,4.007,82.6,92.38937,0,872.1331,0,-2.267,3.179,178,7.158,8.45,14.49731,0.156,51.82,59.61,33.75,35.59
"2016-11-12 08:40:00",261617,0.45,183.5,4.293,82.9,65.92049,0,872.132,0,-2.264,3.175,188,7.151,8.44,15.18369,0.239,51.77,59.61,33.73,35.59
"2016-11-12 08:50:00",261618,0.543,274.5,4.674,80.6,84.76334,0,872.0994,0,-2.564,3.178,194,7.12,8.42,19.24885,0.239,51.82,59.61,33.75,35.59
"2016-11-12 09:00:00",261619,0.851,156.2,4.738,79.18,116.3459,0,872.1625,0,-2.963,3.182,185,7.097,8.39,20.07499,0.168,51.77,59.61,33.73,35.59
"2016-11-12 09:10:00",261620,0.963,256,4.499,79.31,121.6863,0,872.256,0,-2.856,3.183,182,7.076,8.37,18.31861,0.152,51.82,59.56,33.75,35.58
"2016-11-12 09:20:00",261621,0.663,224.9,4.765,79.85,76.70708,0,872.0646,0,-2.693,3.177,187,7.061,8.36,18.54121,0.236,51.82,59.56,33.75,35.58
"2016-11-12 09:30:00",261622,0.875,291.9,5.196,76.71,111.1309,0,872.0514,0,-2.734,3.178,195,7.15,8.35,23.82955,0.214,51.77,59.56,33.73,35.58
"2016-11-12 09:40:00",261623,0.785,294.9,5.234,75.84,179.7798,0,872.0462,0,-2.822,3.178,198,7.172,8.34,36.5928,0.204,51.77,59.56,33.73,35.58
"2016-11-12 09:50:00",261624,1.123,286.3,5.053,77.18,82.10334,0,872.0244,0,-2.816,3.178,190,7.174,8.33,23.71637,0.29,51.82,59.56,33.75,35.58
"2016-11-12 10:00:00",261625,0.734,334.7,5.257,76.94,76.49474,0,871.9926,0,-2.234,3.172,190,7.147,8.31,24.44742,0.32,51.77,59.56,33.73,35.58
"2016-11-12 10:10:00",261626,0.43,316.7,5.296,77.53,85.08862,0,872.0263,0,-2.208,3.172,196,7.113,8.3,26.50184,0.31,51.82,59.56,33.75,35.58
"2016-11-12 10:20:00",261627,0.554,276.5,5.246,78.62,124.8333,0,872.0473,0,-2.031,3.17,188,7.083,8.3,29.26151,0.238,51.77,59.5,33.73,35.56
"2016-11-12 10:30:00",261628,0.365,298.4,5.154,79.71,198.1069,0,872.0452,0,-1.753,3.167,179,7.083,8.3,34.73167,0.177,51.77,59.5,33.73,35.56
"2016-11-12 10:40:00",261629,0.535,319.8,5.516,79,161.0002,0,871.8282,0,-1.702,3.166,191,7.091,8.3,31.84684,0.194,51.77,59.5,33.73,35.56
"2016-11-12 10:50:00",261630,0.438,318.4,5.469,79.25,161.9045,0,871.7924,0,-1.448,3.163,188,7.156,8.3,38.67793,0.257,51.77,59.5,33.73,35.56
"2016-11-12 11:00:00",261631,0.608,335.4,5.748,78.07,246.3441,0,871.6365,0,-1.341,3.159,197,7.176,8.3,43.66288,0.213,51.77,59.5,33.73,35.56
"2016-11-12 11:10:00",261632,0.4,286.6,6.109,74.23,189.937,0,871.5396,0,-2.219,3.164,183,7.17,8.3,60.26296,0.34,51.71,59.5,33.72,35.56
"2016-11-12 11:20:00",261633,0.676,291.1,6.404,72.84,250.2521,0,871.5375,0,-1.616,3.16,191,7.267,8.31,59.24323,0.286,51.77,59.5,33.73,35.56
"2016-11-12 11:30:00",261634,0.597,333.4,6.657,73.39,255.6817,0,871.5438,0,-2.293,3.164,182,7.274,8.37,68.46633,0.297,51.77,59.5,33.73,35.56
"2016-11-12 11:40:00",261635,0.539,357.1,6.762,72.64,443.1615,0,871.4993,0,-1.785,3.158,185,7.256,8.38,71.92358,0.181,51.71,59.5,33.72,35.56
"2016-11-12 11:50:00",261636,0.569,327.8,6.923,72.02,267.9951,0,871.311,0,-2.315,3.163,195,7.263,8.37,84.82375,0.545,51.77,59.5,33.73,35.56
"2016-11-12 12:00:00",261637,0.475,324.2,7.264,70.62,669.8016,0,871.1459,0,-2.701,3.165,190,7.313,8.36,86.39307,0.129,51.77,59.44,33.73,35.55
"2016-11-12 12:10:00",261638,0.572,313,7.532,69.52,657.3715,0,870.9874,0,-2.161,3.156,187,7.311,8.34,87.89323,0.134,51.77,59.44,33.73,35.55
"2016-11-12 12:20:00",261639,0.551,341.2,7.708,68.24,662.8505,0,870.9456,0,-1.876,3.154,185,7.294,8.31,84.50426,0.127,51.77,59.44,33.73,35.55
"2016-11-12 12:30:00",261640,0.372,308.8,7.94,67.78,650.3887,0,870.8126,0,-2.45,3.158,192,7.31,8.32,80.0178,0.123,51.71,59.44,33.72,35.55
"2016-11-12 12:40:00",261641,0.484,310.4,8.2,65.44,633.5598,0,870.613,0,-2.238,3.154,211,7.33,8.36,69.42842,0.11,51.66,59.44,33.7,35.55
"2016-11-12 12:50:00",261642,0.301,285.6,8.95,57.45,636.792,0,870.3726,0,-1.691,3.143,214,7.283,8.31,60.91313,0.096,51.71,59.44,33.72,35.55
"2016-11-12 13:00:00",261643,0.847,190.6,9.72,48.73,622.8514,0,870.1603,0,-1.893,3.143,207,7.243,8.29,50.52752,0.081,51.71,59.44,33.72,35.55
"2016-11-12 13:10:00",261644,0.515,301.3,9.49,49.91,532.7829,0,870.0788,0,-1.917,3.145,199,7.22,8.27,48.01491,0.091,51.71,59.44,33.72,35.55
"2016-11-12 13:20:00",261645,0.488,319,9.38,59.14,576.7836,0,870.1037,0,-1.466,3.143,203,7.21,8.24,43.11111,0.075,51.66,59.44,33.7,35.55
"2016-11-12 13:30:00",261646,0.417,297.3,8.85,64.15,392.2487,0,870.1205,0,-1.926,3.149,230,7.206,8.23,21.74469,0.067,51.66,59.38,33.7,35.54
"2016-11-12 13:40:00",261647,0.306,346.7,8.62,64.94,421.4233,0,870.1373,0,-0.715,3.139,222,7.207,8.2,27.17317,0.066,51.66,59.44,33.7,35.55
"2016-11-12 13:50:00",261648,0.345,319,8.36,65.92,359.5438,0,870.113,0,-0.977,3.141,209,7.214,8.18,15.36547,0.045,51.66,59.44,33.7,35.55
"2016-11-12 14:00:00",261649,0.571,334.2,8.52,64.67,36.65363,0,870.1169,0,-1.93,3.15,219,7.241,8.2,6.353668,0.174,51.66,59.44,33.7,35.55
"2016-11-12 14:10:00",261650,0.332,306.2,8.57,64.03,35.86745,0,870.1793,0,-1.62,3.148,231,7.295,8.22,5.509336,0.154,51.66,59.44,33.7,35.55
"2016-11-12 14:20:00",261651,0.559,275.3,8.45,63.85,35.57528,0,870.1834,0,-0.737,3.139,285,7.324,8.24,4.971648,0.14,51.6,59.38,33.69,35.54
"2016-11-12 14:30:00",261652,0.569,277.5,8.37,63.89,35.04579,0,870.2365,0,-0.691,3.139,274,7.331,8.25,4.573905,0.13,51.6,59.38,33.69,35.54
"2016-11-12 14:40:00",261653,0.559,274.4,8.33,64.52,33.43477,0,870.4394,0,-0.521,3.139,291,7.337,8.23,4.104054,0.123,51.66,59.38,33.7,35.54
"2016-11-12 14:50:00",261654,0.371,299.2,8.21,63.58,31.06886,0,870.4227,0,-0.391,3.137,263,7.343,8.21,3.637956,0.117,51.66,59.38,33.7,35.54
"2016-11-12 15:00:00",261655,0.068,247,8.33,62.23,28.98602,0,870.4395,0,-0.649,3.139,264,7.363,8.21,3.194603,0.11,51.66,59.38,33.7,35.54
"2016-11-12 15:10:00",261656,0.203,258.1,8.25,62.2,27.19603,0,870.4395,0,-1.505,3.148,254,7.399,8.23,2.770397,0.102,51.6,59.32,33.69,35.52
"2016-11-12 15:20:00",261657,0.141,258.6,8.39,62.45,25.92542,0,870.5111,0,-0.88,3.14,286,7.434,8.26,2.789662,0.108,51.6,59.38,33.69,35.54
"2016-11-12 15:30:00",261658,0.287,101.4,8.44,62.66,24.4219,0,870.766,0,-1.401,3.146,214,7.456,8.28,2.679972,0.11,51.6,59.38,33.69,35.54
"2016-11-12 15:40:00",261659,0.118,64.07,8.18,63.57,21.39551,0,870.9564,0,-3.009,3.164,194,7.467,8.3,1.952243,0.091,51.6,59.38,33.69,35.54
"2016-11-12 15:50:00",261660,0.135,80.1,8.05,63.87,19.46144,0,871.1124,0,-3.542,3.169,186,7.47,8.34,1.823382,0.094,51.6,59.38,33.69,35.54
"2016-11-12 16:00:00",261661,0.178,320,7.936,64.25,17.2834,0,871.2868,0,-3.597,3.171,184,7.481,8.37,1.758945,0.102,51.6,59.32,33.69,35.52
"2016-11-12 16:10:00",261662,0.046,207.2,7.683,67.19,14.11061,0,871.5265,0,-3.473,3.171,175,7.507,8.38,1.353328,0.096,51.6,59.38,33.69,35.54
"2016-11-12 16:20:00",261663,0.078,223.2,7.513,65.97,11.11078,0,871.5468,0,-3.297,3.17,176,7.514,8.38,1.137251,0.102,51.6,59.32,33.69,35.52
"2016-11-12 16:30:00",261664,0.114,212.5,7.309,64.73,7.025817,0,871.7247,0,-3.578,3.174,174,7.507,8.38,0.8074481,0.115,51.6,59.38,33.69,35.54
"2016-11-12 16:40:00",261665,0.006,267.2,6.962,63.72,2.221369,0,871.6237,0,-3.456,3.175,170,7.467,8.36,0.1516335,0.041,51.6,59.32,33.69,35.52
"2016-11-12 16:50:00",261666,0.053,236.4,6.662,64.15,0,0,871.6259,0,-3.106,3.174,185,7.411,8.34,0,0,51.6,59.32,33.69,35.52
"2016-11-12 17:00:00",261667,0.059,213.4,6.254,67.68,0,0,871.8492,0,-3.261,3.177,180,7.398,8.3,0,0,51.6,59.32,33.69,35.52
"2016-11-12 17:10:00",261668,0.144,179.7,5.819,72.02,0,0,872.1505,0,-3.067,3.181,184,7.376,8.29,0,0,51.6,59.32,33.69,35.52
"2016-11-12 17:20:00",261669,0.329,171.1,4.948,76.45,0,0,871.9841,0,-2.912,3.177,188,7.41,8.28,0.01137251,0,51.6,59.32,33.69,35.52
"2016-11-12 17:30:00",261670,0.727,166.9,4.804,76.7,0,0,871.8555,0,-3.421,3.186,180,7.426,8.25,0.04928087,0,51.6,59.32,33.69,35.52
"2016-11-12 17:40:00",261671,0.246,209,5.103,73.85,0,0,872.1758,0,-3.165,3.18,179,7.427,8.26,0.09856175,0,51.55,59.32,33.68,35.52
"2016-11-12 17:50:00",261672,0.242,160.2,5.142,73.76,0,0,872.4075,0,-3.678,3.191,184,7.412,8.25,0.2350319,0,51.6,59.32,33.69,35.52
"2016-11-12 18:00:00",261673,0.274,163.5,4.059,80.4,0,0,872.555,0,-3.511,3.192,176,7.332,8.27,0,0,51.55,59.32,33.68,35.52
"2016-11-12 18:10:00",261674,0.171,174.6,4.044,80.2,0,0,872.5596,0,-3.274,3.19,193,7.354,8.29,0,0,51.6,59.26,33.69,35.51
"2016-11-12 18:20:00",261675,0.026,188.4,4.781,76.17,0,0,872.715,0,-3.712,3.188,184,7.396,8.32,0.754544,0,51.55,59.26,33.68,35.51
"2016-11-12 18:30:00",261676,0.16,164.1,4.046,80.2,0,0,872.7338,0,-3.069,3.189,190,7.417,8.36,0.01516724,0,51.55,59.26,33.68,35.51
"2016-11-12 18:40:00",261677,0.46,169.6,3.728,81.8,0,0,872.6125,0,-3.626,3.194,181,7.427,8.38,0,0,51.55,59.26,33.68,35.51
"2016-11-12 18:50:00",261678,0.425,184.5,3.758,81.3,0,0,872.6309,0,-2.87,3.185,193,7.427,8.38,0.1327241,0,51.55,59.26,33.68,35.51
"2016-11-12 19:00:00",261679,0.222,192.8,3.831,80.6,0,0,872.8689,0,-3.125,3.19,189,7.395,8.38,0.05688183,0,51.55,59.26,33.68,35.51
"2016-11-12 19:10:00",261680,0.167,186.3,3.653,81.5,0,0,873.1517,0,-2.371,3.185,205,7.37,8.39,0.05688194,0,51.55,59.26,33.68,35.51
"2016-11-12 19:20:00",261681,0.523,188.8,3.349,82.9,0,0,873.1539,0,-1.866,3.178,210,7.35,8.39,0.0758426,0,51.49,59.26,33.66,35.51
"2016-11-12 19:30:00",261682,0.392,185.6,3.534,81.4,0,0,873.1544,0,-1.792,3.179,196,7.345,8.39,0.1820223,0,51.55,59.26,33.68,35.51
"2016-11-12 19:40:00",261683,0.444,179.4,3.272,82.8,0,0,873.1313,0,-0.862,3.17,228,7.331,8.39,0.06446622,0,51.49,59.26,33.66,35.51
"2016-11-12 19:50:00",261684,0.631,76.89,4.644,76.74,0,0,873.1439,0,-1.962,3.173,234,7.279,8.39,1.342414,0,51.49,59.2,33.66,35.5
"2016-11-12 20:00:00",261685,0.358,173.4,3.966,79.26,0,0,872.9501,0,-0.955,3.164,294,7.259,8.39,0.2009829,0,51.55,59.2,33.68,35.5
"2016-11-12 20:10:00",261686,0.196,131.4,3.962,79.28,0,0,872.9163,0,-1.16,3.169,304,7.276,8.39,0.1630616,0,51.49,59.2,33.66,35.5
"2016-11-12 20:20:00",261687,0.325,174.1,3.544,81.4,0,0,872.9016,0,-0.984,3.168,280,7.297,8.38,0.02654491,0,51.49,59.2,33.66,35.5
"2016-11-12 20:30:00",261688,0.405,186.8,3.794,80.1,0,0,872.7098,0,-2.143,3.181,225,7.26,8.39,0.2768255,0,51.49,59.2,33.66,35.5
"2016-11-12 20:40:00",261689,0.446,180.4,3.63,82,0,0,872.8636,0,-0.858,3.167,310,7.258,8.39,0.1251403,0,51.49,59.2,33.66,35.5
"2016-11-12 20:50:00",261690,0.113,188.8,4.032,79.45,0,0,872.9037,0,-2.469,3.182,250,7.258,8.38,0.291994,0,51.49,59.2,33.66,35.5
"2016-11-12 21:00:00",261691,0.429,187.6,3.55,82,0,0,872.9016,0,-1.112,3.171,281,7.279,8.37,0,0,51.49,59.2,33.66,35.5
"2016-11-12 21:10:00",261692,0.203,193.9,4.302,77.94,0,0,873.0512,0,-1.561,3.171,270,7.282,8.38,0.815308,0,51.49,59.2,33.66,35.5
"2016-11-12 21:20:00",261693,0.493,189.7,3.868,79.53,0,0,873.1144,0,-0.96,3.169,285,7.279,8.38,0.0379213,0,51.55,59.14,33.68,35.48
"2016-11-12 21:30:00",261694,0.554,188.7,3.744,79.98,0,0,873.1588,0,-1.715,3.176,249,7.203,8.36,0.1706459,0,51.49,59.2,33.66,35.5
"2016-11-12 21:40:00",261695,0.545,188.8,3.683,80.1,0,0,873.1735,0,-1.513,3.173,248,7.173,8.34,0.03412917,0,51.49,59.14,33.66,35.48
"2016-11-12 21:50:00",261696,0.663,186.5,3.731,79.21,0,0,873.0787,0,-0.707,3.165,317,7.172,8.33,0.1327246,0,51.49,59.14,33.66,35.48
"2016-11-12 22:00:00",261697,0.735,190.8,3.717,79.26,0,0,872.9016,0,-1.661,3.172,222,7.172,8.36,0.1403088,0,51.49,59.14,33.66,35.48
"2016-11-12 22:10:00",261698,0.377,193,4.364,75.19,0,0,872.9058,0,-1.81,3.171,219,7.171,8.35,0.4588478,0,51.49,59.14,33.66,35.48
"2016-11-12 22:20:00",261699,0.282,204.2,4.619,73.12,0,0,873.1102,0,-2.013,3.174,194,7.141,8.34,0.261657,0,51.49,59.14,33.66,35.48
"2016-11-12 22:30:00",261700,0.318,188,3.934,75.35,0,0,872.9943,0,-1.816,3.177,205,7.122,8.31,0.0379213,0,51.49,59.2,33.66,35.5
"2016-11-12 22:40:00",261701,0.076,214.1,4.961,69.01,0,0,873.1082,0,-1.851,3.165,201,7.087,8.33,1.164184,0,51.49,59.14,33.66,35.48
"2016-11-12 22:50:00",261702,0.181,255.4,5.648,65.76,0,0,873.1545,0,-2.216,3.177,200,7.085,8.33,0.9669932,0,51.49,59.14,33.66,35.48
"2016-11-12 23:00:00",261703,0.504,190.4,4.234,72.25,0,0,873.165,0,-1.813,3.174,200,7.085,8.31,0,0,51.49,59.14,33.66,35.48
"2016-11-12 23:10:00",261704,0.624,188.7,4.036,73.54,0,0,873.3316,0,-1.865,3.176,208,7.071,8.31,0,0,51.49,59.14,33.66,35.48
"2016-11-12 23:20:00",261705,0.455,183.7,3.975,72.73,0,0,873.5508,0,-1.863,3.174,210,7.014,8.33,0.01137639,0,51.49,59.08,33.66,35.47
"2016-11-12 23:30:00",261706,0.377,180.7,4.245,70.69,0,0,873.6541,0,-1.662,3.172,202,7.035,8.34,0.1365167,0,51.49,59.08,33.66,35.47
"2016-11-12 23:40:00",261707,0.32,190.4,4.458,69.05,0,0,873.7089,0,-1.737,3.173,202,7.042,8.36,0.2844098,0,51.49,59.08,33.66,35.47
"2016-11-12 23:50:00",261708,0.162,181.2,4.224,69.85,0,0,873.9133,0,-1.838,3.174,202,7.003,8.38,0,0,51.49,59.14,33.66,35.48
